{"data":{"norad_id":54644,"intl_designator":"2022-166C","name":"ONEWEB-0539","alt_names":[],"object_type":"PAYLOAD","status":"ACTIVE","operator":null,"country":"UK","launch_date":"2022-12-08","launch_site_code":"AFETR","launch_vehicle":null,"mission":null,"orbit_class":"UNKNOWN","rcs_meters":null,"size_class":null,"mass_kg":null,"dimensions":null,"purposes":["comms"],"wikipedia_slug":null,"has_3d_model":false,"image_url":null,"decayed_at":null,"tle_current":{"epoch":"2026-05-24T23:26:12.749280Z","epoch_age_seconds":73111,"freshness":"FRESH","line1":"1 54644U 22166C   26144.97653645 -.00000009  00000+0 -52480-4 0  9995","line2":"2 54644  87.9259 248.5881 0002129  95.5958 264.5418 13.21825879168478","mean_motion":13.21825879,"eccentricity":0.0002129,"inclination_deg":87.9259,"raan_deg":248.5881,"arg_perigee_deg":95.5958,"mean_anomaly_deg":264.5418,"bstar":-5.248e-5,"rev_number":16847,"period_min":108.94021844158,"perigee_km":1176.1451803213,"apogee_km":1179.3624786365,"semimajor_km":7555.8908294789,"source":"CELESTRAK","updated_at":"2026-05-25T13:38:22.625469Z"}}}